STARLINK-32423

Last updated on Mon Oct 21 2024 00:02:04 GMT+0000 (Coordinated Universal Time)

1 61218U 24171U 24294.00001157 -.00013396 00000+0 -38845-3 0 9992 2 61218 53.1577 153.2920 0001072 84.2360 51.5585 15.34206742 5911
UTC large
Height (km)
Speed (km/s)
/
Latitude / Longitude
Inclination (degrees)
Orbital Period (minutes)
Azimuth
Elevation
Range (km)
Doppler Factor

Next 0 passes for location: London (51.5072 / 0.1276)

Sorry there are no passes over London.